sat.trackr.live / text

‹ back to catalog

STARLINK-3970

NORAD 52706 · 2022-053BC

PAYLOAD ACTIVE UNKNOWN

§ Identity

Operator
Country
US
Launch date
2022-05-18
Launch site
AFETR
Launch vehicle
Mass (kg)
RCS (m²)

Purposes: comms

External: N2YO · Heavens-Above · Gunter

§ Orbital elements

Epoch: 2026-09-19T19:18:48.424032Z

Period
93.79 min
Inclination
53.1609°
Eccentricity
0.0001127
Mean motion
15.35412157 rev/d
Perigee alt
458.9 km
Apogee alt
460.5 km
Semi-major
6,837.8 km
B*
1.9829e-5
RAAN
329.1381°
Arg perigee
69.6753°
Mean anomaly
290.4371°
Rev number
24,080

§ Raw data

STARLINK-39701 52706U 22053BC  26262.80472713  .00000312  00000+0  19829-4 0  99902 52706  53.1609 329.1381 0001127  69.6753 290.4371 15.35412157240804

JSON: /api/v1/satellites/52706 · /tle

For live sub-satellite position, see the globe view (requires WebGL).

§ Visibility from observer

Set your observer location to see the next 7 days of passes ≥ 10°. The values pass through the URL so the page stays shareable.

No JS? Fill the form by hand. The geolocation button needs JavaScript.